North Springfield, VT

1:12 AM EDT on July 26, 2016 (GMT -0400)
Hartness State

Weather History for KVSF - May, 2013

Change the Weather History Date:

Friday, May 17, 2013

  Actual Average Record
Temperature  
Mean Temperature 53 °F 55 °F  
Max Temperature 67 °F 68 °F 82 °F (2015)
Min Temperature 39 °F 43 °F 32 °F (2003)
Degree Days  
Heating Degree Days 14 10  
Month to date heating degree days 204  
Since 1 July heating degree days 7310  
Cooling Degree Days 0 0  
Month to date cooling degree days 0 0  
Year to date cooling degree days 0 2  
Growing Degree Days 2 (Base 50)    
Moisture  
Dew Point 37 °F    
Average Humidity 63    
Maximum Humidity 100    
Minimum Humidity 26    
Precipitation  
Precipitation 0.00 in 0.11 in 1.25 in (2014)
Month to date precipitation 1.11 1.75  
Year to date precipitation 8.08 14.28  
Sea Level Pressure  
Sea Level Pressure 30.07 in    
Wind  
Wind Speed 4 mph (NNW)    
Max Wind Speed 15 mph    
Max Gust Speed 23 mph    
Visibility 10 miles    
Events      
T = Trace of Precipitation, MM = Missing Value Source: NWS Daily Summary

Daily Weather History Graph

Daily Weather History Graph

Search for Another Location

Airport or City:

Trip Planner

Search our weather history database for the weather conditions in past years. The results will help you decide how hot, cold, wet, or windy it might be!

Date:

Astronomy

May. 17, 2013 Rise Set
Actual Time 5:23 AM EDT 8:09 PM EDT
Civil Twilight 4:50 AM EDT 8:43 PM EDT
Nautical Twilight 4:08 AM EDT 9:25 PM EDT
Astronomical Twilight 3:20 AM EDT 10:13 PM EDT
Moon 11:58 AM EDT (5/17) 12:56 AM EDT (5/17)
Length of Visible Light 15h 52m
Length of Day
14h 46m
Waxing Crescent, 45% of the Moon is Illuminated
May 17
Waxing Crescent
May 18
First Quarter
May 25
Full
May 31
Last Quarter
Jun 8
New

Hourly Weather History & Observations

Time (EDT) Temp. Dew Point Humidity Pressure Visibility Wind Dir Wind Speed Gust Speed Precip Events Conditions
12:54 AM 48.0 °F 42.1 °F 80% 29.88 in 10.0 mi Calm Calm - N/A   Partly Cloudy
1:54 AM 45.0 °F 42.1 °F 90% 29.90 in 10.0 mi Calm Calm - N/A   Clear
2:54 AM 44.1 °F 41.0 °F 89% 29.92 in 10.0 mi Calm Calm - N/A   Clear
3:54 AM 42.1 °F 39.9 °F 92% 29.94 in 10.0 mi Calm Calm - N/A   Clear
4:54 AM 39.9 °F 39.0 °F 97% 29.96 in 10.0 mi Calm Calm - N/A   Clear
5:54 AM 44.1 °F 39.0 °F 82% 29.99 in 10.0 mi Calm Calm - N/A   Overcast
6:54 AM 46.9 °F 37.9 °F 71% 30.02 in 10.0 mi WNW 3.5 mph - N/A   Scattered Clouds
7:54 AM 50.0 °F 37.9 °F 63% 30.04 in 10.0 mi SW 3.5 mph - N/A   Mostly Cloudy
8:54 AM 51.1 °F 39.0 °F 63% 30.06 in 10.0 mi NW 8.1 mph - N/A   Overcast
9:54 AM 53.1 °F 39.0 °F 59% 30.07 in 10.0 mi Variable 3.5 mph - N/A   Overcast
10:54 AM 57.0 °F 36.0 °F 45% 30.08 in 10.0 mi North 10.4 mph 17.3 mph N/A   Overcast
11:54 AM 59.0 °F 35.1 °F 41% 30.09 in 10.0 mi North 10.4 mph - N/A   Overcast
12:54 PM 62.1 °F 35.1 °F 37% 30.09 in 10.0 mi NNE 10.4 mph 18.4 mph N/A   Mostly Cloudy
1:54 PM 63.0 °F 33.1 °F 33% 30.09 in 10.0 mi North 5.8 mph - N/A   Scattered Clouds
3:54 PM 64.0 °F 30.9 °F 29% 30.10 in 10.0 mi North 8.1 mph 18.4 mph N/A   Partly Cloudy
4:54 PM 64.9 °F 28.9 °F 26% 30.12 in 10.0 mi North 9.2 mph 17.3 mph N/A   Clear
5:54 PM 64.9 °F 30.9 °F 28% 30.12 in 10.0 mi North 11.5 mph - N/A   Partly Cloudy
6:54 PM 64.0 °F 32.0 °F 30% 30.14 in 10.0 mi Variable 4.6 mph - N/A   Partly Cloudy
7:54 PM 59.0 °F 35.1 °F 41% 30.16 in 10.0 mi NNW 3.5 mph - N/A   Clear
8:54 PM 52.0 °F 39.0 °F 61% 30.19 in 10.0 mi Calm Calm - N/A   Clear
9:54 PM 48.0 °F 39.9 °F 74% 30.22 in 10.0 mi Calm Calm - N/A   Clear
10:54 PM 45.0 °F 39.9 °F 82% 30.24 in 10.0 mi Calm Calm - N/A   Clear
11:54 PM 42.1 °F 39.9 °F 92% 30.25 in 10.0 mi Calm Calm - N/A   Clear